Regional Weather Roundup
Issued by NWS Portland, ME

Home | Current Version | Previous Version | Text Only | Print | Product List | Glossary On
Versions: 1 2 3 4 5 6 7 8 9 10 11 12 13 14 15 16 17 18 19 20 21 22 23 24 25 26 27 28 29 30 31 32 33 34 35 36 37 38 39 40 41 42 43 44 45 46 47 48 49 50
000
ASUS41 KGYX 290310
RWRGYX
WEATHER ROUNDUP FOR MAINE AND NEW HAMPSHIRE
NATIONAL WEATHER SERVICE GRAY ME
1100 PM EDT TUE JUL 28 2015

MEZ002-005-006-010-012-015-018-020-021-024-026-027-029-290400-
MAINE

CITY           SKY/WX    TMP DP  RH WIND       PRES   REMARKS
PORTLAND       PTCLDY    70  65  84 CALM      29.94F
SANFORD        MOCLDY    68  61  77 W5        29.96S
BAR HARBOR     PTCLDY    63  63 100 S5        29.93F
WISCASSET      CLEAR     64  62  93 CALM      29.95F
ROCKLAND       PTCLDY    64  63  94 SW7       29.92F
FRYEBURG       PTCLDY    66  66 100 NW3       29.97S
LEWISTONAUBURN CLEAR     66  64  94 CALM      29.94F
AUGUSTA        CLEAR     69  65  86 SE3       29.94S
BANGOR         MOCLDY    64  63  96 S6        29.93F
GREENVILLE       N/A     65  57  75 CALM      29.95S
MILLINOCKET    PTCLDY    67  60  78 CALM      29.92F
HOULTON        CLEAR     60  57  89 CALM      29.89S
PRESQUE ISLE   CLEAR     61  54  77 SW3       29.91R
FRENCHVILLE    CLEAR     63  54  72 NW5       29.92S
CARIBOU        CLEAR     65  53  65 NW5       29.90S
$$

NHZ002-005-008-009-011-012-014-290400-
NEW HAMPSHIRE

CITY           SKY/WX    TMP DP  RH WIND       PRES   REMARKS
PORTSMOUTH     MOCLDY    70  66  88 W7        29.93S
ROCHESTER      MOCLDY    71  64  78 CALM      29.95F
MANCHESTER     PTCLDY    76  65  68 S3        29.95S
CONCORD        PTCLDY    72  64  76 CALM      29.97R
LACONIA        PTCLDY    70  64  83 CALM      29.96S
PLYMOUTH       MOCLDY    66  66 100 CALM      29.98R
BERLIN         CLEAR     62  59  90 CALM      29.99F
WHITEFIELD     CLEAR     65  62  90 CALM      29.99F
JAFFREY        CLEAR     66  65  96 CALM      30.02R
KEENE          CLEAR     68  63  83 CALM      29.99S
LEBANON        CLEAR     68  64  87 CALM      29.98S
MT WASHINGTON  MOCLDY    54  48  82 NW29        N/A
$$

VTZ005-007-008-290400-
VERMONT

CITY           SKY/WX    TMP DP  RH WIND       PRES   REMARKS
ST JOHNSBURY     N/A     69  65  86 MISG      29.97S
MONTPELIER     CLEAR     67  63  87 CALM      30.03F
BURLINGTON     CLEAR     74  67  78 CALM      29.95S
$$

MAZ007-012-024-CTZ003-RIZ002-NYZ038-NYZ072-290400-
SOUTHERN NEW ENGLAND AND NY

CITY           SKY/WX    TMP DP  RH WIND       PRES   REMARKS
BOSTON         PTCLDY    74  67  78 S5        29.95F
WORCESTER      CLEAR     72  63  73 W7        30.01S
NANTUCKET      FOG       71  69  93 S5        29.97F VSB 1/4
PROVIDENCE     PTCLDY    73  68  84 CALM      29.97S
HARTFORD       MOCLDY    74  68  81 CALM      29.96S
ALBANY         PTCLDY    76  66  71 S3        29.97S
NEW YORK CITY  PTCLDY    84  68  58 S10       29.96F
$$

ANZ081-ANZ082-ANZ150-NHZ014-MEZ023>029-290400-
COASTAL MARINE OBSERVATIONS

STATION/POSITION TIME  TEMP    WIND        PRES    WAVE
                       AIR SEA DIR/SP/G            HT/PER
                 (UTC) (F)     (DEG/KT/KT) (MB)    (FT/S)
MOUNT DESERT ROC 0300   60     220/ 10/ 10 1013.6F
MATINICUS ROCK   0200   59     190/ 12/ 13 1013.8F
ISLE OF SHOALS   0200   72     210/  9/  9 1013.6F
JEFFREYS LEDGE   0203      63                N/A     2/ 8
CASHES LEDGE BUO 0250   66                 1013.5F   2/10
GEORGES BANK BUO 0250   67 68  340/  4/  4 1014.8F   3/ 9
$$

.............KEY..............
   WCI - WIND CHILL
   TC  - TEMPERATURE IN CELSIUS
   VSB - VISIBILITY IN MILES
   HX  - HEAT INDEX
   FAIR- INDICATES FEW OR NO CLOUDS BELOW 12,000 FT, WITH NO
         SIGNIFICANT WEATHER AND/OR OBSTRUCTIONS TO VISIBILITY.





USA.gov is the U.S. government's official web portal to all federal, state and local government web resources and services.